Home   Weather   Campos   Past weeks
Flag for Brazil

Past Weather in Campos, Rio de Janeiro, Brazil — Yesterday and Last 2 Weeks

Now
73 °F

Fog.


Feels Like: 70 °F
Forecast: 89 / 69 °F
Wind: 6 mph from North

Location: Rio De Janeiro Airport

Current Time: May 24, 2019 at 6:42:37 am

Latest Report: May 24, 2019 at 6:00 am


Visibility: 2 mi

Pressure: 29.86 "Hg

Humidity: 94%

Dew Point: 72 °F

Location of CamposLocation

Past Weather in Campos — Graph

°F

Campos Temperature Yesterday

Maximum temperature yesterday: 86 °F (at 1:00 pm)
Minimum temperature yesterday: 72 °F (at 6:30 am)
Average temperature yesterday: 77 °F

High & Low Weather Summary for the Past Weeks

 TemperatureHumidityPressure
High88 °F (May 11, 1:00 pm)100% (May 12, 5:00 am)30.12 "Hg (May 12, 5:00 am)
Low70 °F (May 19, 4:00 am)21% (May 14, 11:10 pm)29.83 "Hg (May 11, 2:00 pm)
Average77 °F86%29.98 "Hg
* Reported May 9 5:00 am — May 24 5:00 am, Campos. Weather by CustomWeather, © 2019

Note: Actual official high and low records may vary slightly from our data, if they occured in-between our weather recording intervals... More about our weather records

Advertising

Campos Weather History for the Previous 24 Hours

Scroll right to see more
 ConditionsComfort  
Time TempWeatherWind HumidityBarometerVisibility
5:00 am
Fri, May 24
73 °FFog.6 mph94%29.86 "Hg3 mi
4:00 am75 °FFog.3 mph89%29.86 "Hg2 mi
3:00 am75 °FFog.2 mph89%29.89 "Hg2 mi
2:00 am75 °FFog.3 mph89%29.89 "Hg3 mi
1:00 am75 °FClear.3 mph94%29.89 "Hg4 mi
12:00 am75 °FClear.1 mph94%29.92 "Hg5 mi
11:00 pm
Thu, May 23
77 °FClear.2 mph94%29.92 "Hg10 mi
10:00 pm77 °FClear.2 mph89%29.92 "Hg10 mi
9:00 pm75 °FClear.2 mph83%29.92 "Hg10 mi
8:00 pm77 °FClear.7 mph79%29.92 "Hg10 mi
7:00 pm75 °FClear.7 mph89%29.89 "Hg10 mi
6:00 pm77 °FClear.9 mph89%29.89 "Hg10 mi
5:00 pm77 °FSunny.8 mph89%29.86 "Hg10 mi
4:00 pm81 °FSunny.12 mph79%29.86 "Hg10 mi
3:00 pm82 °FSunny.14 mph79%29.86 "Hg10 mi
2:00 pm86 °FSunny.3 mph59%29.86 "Hg10 mi
1:00 pm86 °FClear.3 mph52%29.89 "Hg4 mi
12:00 pm82 °FPassing clouds.3 mph70%29.92 "Hg4 mi
11:25 am81 °FScattered clouds.6 mph79%29.92 "Hg3 mi
11:00 am79 °FFog.6 mph84%29.95 "Hg3 mi
10:00 am75 °FFog.7 mph94%29.95 "Hg2 mi
9:00 am73 °FFog.7 mph100%29.95 "Hg2 mi
8:00 am73 °FFog.7 mph94%29.95 "Hg2 mi
7:00 am72 °FFog.6 mph100%29.92 "Hg2 mi
6:30 am72 °FFog.6 mph100%29.92 "Hg2 mi
6:00 am73 °FFog.5 mph100%29.92 "Hg2 mi
Weather by CustomWeather, © 2019

See weather overview